Home > Weather > Norfolk > Past weeks

Flag for USA Past Weather in Norfolk, Virginia, USA — Yesterday and Last 2 Weeks

Now
76 °F

Rain. More clouds than sun.


Feels Like: 76 °F
Forecast: 69 / 74 °F
Wind: No wind

Location: Norfolk Naval Air Station

Current Time: May 30, 2016 at 4:31:23 PM

Latest Report: May 30, 2016 at 4:02 PM


Visibility: 2 mi

Pressure: 29.99 "Hg

Humidity: 85%

Dew Point: 71 °F

Location of NorfolkLocation

Past Weather in Norfolk — Graph

°F

Norfolk Temperature Yesterday

Maximum temperature yesterday: 80 °F (at 10:59 AM)
Minimum temperature yesterday: 69 °F (at 4:59 AM)
Average temperature yesterday: 75 °F

High & Low Weather Summary for the Past Weeks

 TemperatureHumidityPressure
High90 °F (May 26, 2:59 PM)97% (May 23, 4:59 AM)30.28 "Hg (May 23, 4:59 AM)
Low45 °F (May 16, 5:59 AM)29% (May 15, 5:59 PM)29.80 "Hg (May 22, 3:59 AM)
Average68 °F71%30.08 "Hg
* Reported May 15 2:59 PM — May 30 2:59 PM, Norfolk, Weather by CustomWeather, © 2016

Note: Actual official high and low records may vary slightly from our data, if they occured in-between our weather recording intervals... More about our weather records

Advertising

Norfolk Weather History for the Previous 24 Hours

Scroll right to see more
 ConditionsComfort  
Time TempWeatherWind HumidityBarometerVisibility
2:59 PM
Mon, May 30
78 °FCloudy.6 mph74%29.98 "Hg10 mi
1:59 PM77 °FCloudy.6 mph77%30.00 "Hg10 mi
12:59 PM77 °FLight rain. Mostly cloudy.6 mph82%30.01 "Hg8 mi
11:59 AM77 °FMostly cloudy.5 mph82%30.03 "Hg10 mi
10:59 AM75 °FLight rain. Mostly cloudy.6 mph85%30.03 "Hg9 mi
9:59 AM74 °FLight rain. Mostly cloudy.6 mph88%30.03 "Hg8 mi
8:59 AM74 °FLight rain. Mostly cloudy.6 mph88%30.03 "Hg9 mi
7:59 AM74 °FMostly cloudy.6 mph88%30.03 "Hg10 mi
6:59 AM74 °FMostly cloudy.6 mph91%30.02 "Hg10 mi
5:59 AM75 °FLight rain. Mostly cloudy.5 mph90%30.01 "Hg10 mi
4:59 AM75 °FLight rain. Mostly cloudy.3 mph90%30.01 "Hg9 mi
3:59 AM75 °FMostly cloudy.3 mph90%30.01 "Hg10 mi
2:59 AM75 °FOvercast.5 mph90%30.02 "Hg9 mi
1:59 AM75 °FLow clouds.7 mph90%30.03 "Hg10 mi
12:59 AM76 °FPassing clouds.7 mph88%30.04 "Hg10 mi
11:59 PM
Sun, May 29
76 °FPassing clouds.7 mph88%30.05 "Hg10 mi
10:59 PM76 °FOvercast.6 mph88%30.06 "Hg10 mi
9:59 PM77 °FPartly cloudy.No wind85%30.06 "Hg10 mi
8:59 PM77 °FPartly sunny.3 mph85%30.06 "Hg10 mi
7:59 PM77 °FPartly sunny.3 mph85%30.05 "Hg10 mi
6:59 PM78 °FBroken clouds.8 mph79%30.06 "Hg10 mi
5:59 PM78 °FBroken clouds.5 mph87%30.05 "Hg10 mi
4:59 PM76 °FCloudy.6 mph91%30.06 "Hg10 mi
Weather by CustomWeather, © 2016

See weather overviewHow to use our weather pages